DECAYED

OBJECT A, 57580 (Decayed)

Orbit data source: Space-Track

You're viewing an Uncataloged Satellite

Recently launched and/or uncataloged satellites may have evolving metadata. Metadata may include but not limited to: Owner, Maufacturer, Bus, Motor, and Mission.

OBJECT A, 57580 was a Chinese satellite in LEO that was launched on Thu, 10 Aug 2023 UTC via a GUSHENXING 1 launch vehicle from the Jiuquan Satellite Launch Center, China (JSC). Unknown objects in Earth's orbit typically refer to objects detected orbiting the Earth but have not yet been identified or cataloged. These objects could be anything from previously untracked satellites, spent rocket stages, debris from satellite collisions, or even natural meteoroids temporarily captured by Earth's gravity. This object's orbit decayed before it could be identified.

Not visible in the next 10 days
Identifier
57580, 2023-117A
Orbit
Decayed
Country
Flag of CNCN / PRC
Related business
None
Manufacturer
Unknown
Mission
Decayed Commercial Imaging
Bus & Motor
Unknown
Mass
Unknown
Launch date (UTC)
2023-08-10 (3 years ago)
Launch vehicle
GUSHENXING 1
Launch site
Jiuquan Satellite Launch Center, China (JSC)
Object type
Unknown
Shape & HBR
Box + 2 Pan, 0.5 m
Radar Cross Section
0.195 m², Medium (>0.1 m² and < 1m²)

Expand to show TLE details & history
Last TLE update: 1 year ago

TLE from 1 year ago
0 OBJECT A
1 57580U 23117A   25144.16779012  .11637947  25637-5  58038-3 0  9991
2 57580  97.4144 232.7843 0015917 264.3863  95.5622 16.41111729 99921
Epoch: 2025-05-24T04:01Z
TLE epoch observation values (Epoch: 2025-05-24T04:01:37.066Z)
Latitude
Longitude
-69.63267°
Altitude
167.125 km
Speed
7.805 km/s
True Right ascension
15h 31m 08s
True Declination
0° 00' 00"
Sunlit
Object was in full shadow at epoch
Visualization orbit readout
Latitude
Unknown
Longitude
Unknown
Altitude
Unknown
Speed
Unknown
Apparent Right ascension
Unknown
Apparent Declination
Unknown
Sunlit
N/A
Visualization observer readout
Local Sidereal Time
21:26:23
Azimuth
Unknown
Elevation
Unknown
Doppler factor
Unknown
Orbital elements
Apogee altitude
170.06 km
Perigee altitude
149.247 km
Semi-major axis
6,537.791 km
Eccentricity
0.00159
Inclination
97.4144°
RAAN
232.7843°
Arg. of periapsis
264.3863°
True anomaly
95.7437°
Mean anomaly
95.5622°
Eccentric anomaly
95.65295°
Mean motion
4.10579 °/min
Orbital period
87.68 mins
BSTAR
0.00058038
Loading maneuver chart data...
Computing Atmospheric mass density...
Loading historical data...
Loading historical data...
Loading historical data...
Loading historical data...
Loading historical data...
Loading historical data...
Loading historical data...

Documentation

Showing up to 5 results
|